STARLINK-1154, 45198

Orbit data source: Space-Track

STARLINK-1154, 45198 is a payload satellite owned by SpaceX/Seattle (US) in LEO that was launched on Mon, 17 Feb 2020 UTC via an FALCON 9 launch vehicle from the Air Force Eastern Test Range (AFETR). Payload-class satellites include a variety of spacecraft equipped with specific instruments for various scientific and technological missions. These include communications satellites like Starlink; space stations such as the ISS; scientific satellites like the Hubble; Earth observation satellites from companies like Planet Labs, Umbra, and HawkEye 360; GPS; miniature CubeSats for education and research; and military/defense satellites.

Loading next visibility...
Identifier
45198, 2020-012W
Orbit
LEO
Country
Flag of USUS
Related business
Manufacturer
SpaceX/Seattle
Mission
Partially operational Commercial Communications
Bus & Motor
STARLINK, Unknown motor
Mass
260 kg wet, ~248 kg dry
Launch date (UTC)
2020-02-17 (6 years ago)
Launch vehicle
FALCON 9
Launch site
Air Force Eastern Test Range (AFETR)
Object type
Payload
Rocket body
Debris
Shape & HBR
Box + 1 Pan, 10.1 m
Radar Cross Section
13.562 m², Large (>1 m²)

Expand to show TLE details & history
Last TLE update: 8 hours ago

TLE from 8 hours ago
0 STARLINK-1154
1 45198U 20012W   26073.92031221  .00085891  00000-0  16579-2 0  9991
2 45198  53.0491 345.0358 0007460 110.2346 249.9464 15.47078444336108
Epoch: 2026-03-14T22:05Z
TLE epoch observation values (Epoch: 2026-03-14T22:05:14.974Z)
Latitude
0.00001°
Longitude
-158.81116°
Altitude
427.916 km
Speed
7.655 km/s
True Right ascension
23h 00m 08s
True Declination
0° 00' 00"
Sunlit
Object was in daylight at epoch
Visualization orbit readout
Latitude
Unknown
Longitude
Unknown
Altitude
Unknown
Speed
Unknown
Apparent Right ascension
Unknown
Apparent Declination
Unknown
Sunlit
N/A
Visualization observer readout
Local Sidereal Time
10:35:31
Azimuth
Unknown
Elevation
Unknown
Doppler factor
Unknown
Orbital elements
Apogee altitude
430.63 km
Perigee altitude
420.479 km
Semi-major axis
6,803.691 km
Eccentricity
0.00075
Inclination
53.0491°
RAAN
345.0358°
Arg. of periapsis
110.2346°
True anomaly
249.86612°
Mean anomaly
249.9464°
Eccentric anomaly
249.90626°
Mean motion
3.86746 °/min
Orbital period
93.08 mins
BSTAR
0.0016579
Loading maneuver chart data...
Computing Atmospheric mass density...

Documentation

Showing up to 5 results
|